New York, NY

5:06 AM EDT on September 25, 2017 (GMT -0400)
La Guardia

Weather History for KLGA - May, 2013

Change the Weather History Date:

Sunday, May 12, 2013

  Actual Average Record
Temperature  
Mean Temperature 62 °F 61 °F  
Max Temperature 70 °F 70 °F 88 °F (1948)
Min Temperature 53 °F 53 °F 43 °F (1940)
Degree Days  
Heating Degree Days 3 5  
Month to date heating degree days 60 75  
Since 1 July heating degree days 4369 4589  
Cooling Degree Days 0 1  
Month to date cooling degree days 7 12  
Year to date cooling degree days 7 20  
Growing Degree Days 12 (Base 50)    
Moisture  
Dew Point 37 °F    
Average Humidity 46    
Maximum Humidity 73    
Minimum Humidity 18    
Precipitation  
Precipitation 0.01 in 0.11 in 1.30 in (2006)
Month to date precipitation 3.31 1.36  
Year to date precipitation 12.73 15.26  
Snow  
Snow 0.00 in 0.00 in - ()
Month to date snowfall T 0.0  
Since 1 July snowfall 22.2 26.9  
Snow Depth 0.00 in    
Sea Level Pressure  
Sea Level Pressure 29.73 in    
Wind  
Wind Speed 15 mph (West)    
Max Wind Speed 26 mph    
Max Gust Speed 35 mph    
Visibility 10 miles    
Events Rain    
T = Trace of Precipitation, MM = Missing Value Source: NWS Daily Summary

Daily Weather History Graph

Daily Weather History Graph

Search for Another Location

Airport or City:

Trip Planner

Search our weather history database for the weather conditions in past years. The results will help you decide how hot, cold, wet, or windy it might be!

Date:

Astronomy

May. 12, 2013 Rise Set
Actual Time 5:40 AM EDT 8:03 PM EDT
Civil Twilight 5:10 AM EDT 8:34 PM EDT
Nautical Twilight 4:32 AM EDT 9:12 PM EDT
Astronomical Twilight 3:49 AM EDT 9:54 PM EDT
Moon 7:33 AM EDT (5/12) 10:28 PM EDT (5/12)
Length of Visible Light 15h 24m
Length of Day
14h 22m
Waxing Crescent, 6% of the Moon is Illuminated
May 12
Waxing Crescent
May 18
First Quarter
May 25
Full
May 31
Last Quarter
Jun 8
New

Hourly Weather History & Observations

Time (EDT) Temp. Dew Point Humidity Pressure Visibility Wind Dir Wind Speed Gust Speed Precip Events Conditions
12:51 AM 66.0 °F 57.0 °F 73% 29.70 in 10.0 mi West 10.4 mph - N/A   Mostly Cloudy
1:51 AM 66.0 °F 52.0 °F 60% 29.68 in 10.0 mi West 11.5 mph - N/A   Mostly Cloudy
2:51 AM 64.0 °F 53.1 °F 67% 29.65 in 10.0 mi WNW 12.7 mph - N/A   Mostly Cloudy
3:51 AM 63.0 °F 52.0 °F 67% 29.68 in 10.0 mi WNW 9.2 mph - 0.00 in Rain Light Rain
4:51 AM 63.0 °F 48.9 °F 60% 29.69 in 10.0 mi West 6.9 mph - 0.00 in   Overcast
5:51 AM 62.1 °F 46.9 °F 58% 29.71 in 10.0 mi West 12.7 mph - 0.00 in Rain Light Rain
6:51 AM 60.1 °F 46.9 °F 62% 29.70 in 8.0 mi West 3.5 mph - 0.00 in Rain Light Rain
7:51 AM 59.0 °F 45.0 °F 60% 29.71 in 10.0 mi West 12.7 mph 20.7 mph 0.01 in Rain Light Rain
8:51 AM 60.1 °F 44.1 °F 55% 29.71 in 10.0 mi WNW 13.8 mph 21.9 mph 0.00 in   Mostly Cloudy
9:51 AM 63.0 °F 43.0 °F 48% 29.70 in 10.0 mi WNW 8.1 mph 17.3 mph N/A   Scattered Clouds
10:51 AM 66.0 °F 41.0 °F 40% 29.69 in 10.0 mi West 11.5 mph - N/A   Scattered Clouds
11:51 AM 68.0 °F 39.9 °F 36% 29.69 in 10.0 mi West 18.4 mph 26.5 mph N/A   Mostly Cloudy
12:51 PM 69.1 °F 39.0 °F 33% 29.68 in 10.0 mi WSW 17.3 mph 23.0 mph N/A   Mostly Cloudy
1:51 PM 68.0 °F 37.0 °F 32% 29.68 in 10.0 mi West 11.5 mph 26.5 mph N/A   Scattered Clouds
2:51 PM 66.9 °F 28.0 °F 23% 29.68 in 10.0 mi West 21.9 mph 28.8 mph N/A   Scattered Clouds
3:51 PM 66.9 °F 26.1 °F 21% 29.68 in 10.0 mi WSW 20.7 mph 27.6 mph N/A   Clear
4:51 PM 66.0 °F 21.0 °F 18% 29.70 in 10.0 mi West 18.4 mph 31.1 mph N/A   Clear
5:51 PM 64.9 °F 24.1 °F 21% 29.74 in 10.0 mi West 23.0 mph 28.8 mph N/A   Clear
6:51 PM 63.0 °F 21.9 °F 21% 29.77 in 10.0 mi West 24.2 mph 33.4 mph N/A   Scattered Clouds
7:51 PM 61.0 °F 19.9 °F 21% 29.81 in 10.0 mi West 21.9 mph 31.1 mph N/A   Partly Cloudy
8:51 PM 59.0 °F 23.0 °F 25% 29.84 in 10.0 mi West 16.1 mph 28.8 mph N/A   Scattered Clouds
9:51 PM 57.9 °F 25.0 °F 28% 29.89 in 10.0 mi WNW 19.6 mph 33.4 mph N/A   Scattered Clouds
10:51 PM 55.0 °F 25.0 °F 31% 29.92 in 10.0 mi West 16.1 mph 25.3 mph N/A   Clear
11:51 PM 54.0 °F 26.1 °F 34% 29.93 in 10.0 mi West 16.1 mph 24.2 mph N/A   Clear